Springfield, OH

2:35 PM EDT on May 25, 2017 (GMT -0400)
Springfield-Beckley Municipal

Weather History for KSGH - November, 2012

Change the Weather History Date:

Saturday, November 24, 2012

  Actual Average (KFFO) Record (KFFO)
Temperature  
Mean Temperature 28 °F -  
Max Temperature 29 °F 47 °F 64 °F (2001)
Min Temperature 26 °F 31 °F 14 °F (2005)
Degree Days  
Heating Degree Days 38    
Moisture  
Dew Point 18 °F    
Average Humidity 69    
Maximum Humidity 74    
Minimum Humidity 63    
Precipitation  
Precipitation 0.00 in - - ()
Sea Level Pressure  
Sea Level Pressure 30.18 in    
Wind  
Wind Speed 11 mph (West)    
Max Wind Speed 14 mph    
Max Gust Speed -    
Visibility 7 miles    
Events      
Averages and records for this station are not official NWS values.
T = Trace of Precipitation, MM = Missing Value Source: NWS Daily Summary

Daily Weather History Graph

Daily Weather History Graph

Search for Another Location

Airport or City:

Trip Planner

Search our weather history database for the weather conditions in past years. The results will help you decide how hot, cold, wet, or windy it might be!

Date:

Astronomy

Nov. 24, 2012 Rise Set
Actual Time 7:30 AM EST 5:13 PM EST
Civil Twilight 7:01 AM EST 5:42 PM EST
Nautical Twilight 6:28 AM EST 6:16 PM EST
Astronomical Twilight 5:55 AM EST 6:48 PM EST
Moon 2:57 PM EST (11/24) 3:47 AM EST (11/24)
Length of Visible Light 10h 41m
Length of Day
9h 42m
Waxing Gibbous, 87% of the Moon is Illuminated
Nov 24
Waxing Gibbous
Nov 28
Full
Dec 6
Last Quarter
Dec 13
New
Dec 20
First Quarter

Hourly Weather History & Observations

Time (EST) Temp. Windchill Dew Point Humidity Pressure Visibility Wind Dir Wind Speed Gust Speed Precip Events Conditions
12:04 AM 26.6 °F 16.2 °F 17.6 °F 69% 30.14 in 8.0 mi West 11.5 mph - N/A   Mostly Cloudy
12:56 AM 27.1 °F 18.2 °F 17.1 °F 66% 30.17 in 8.0 mi West 9.2 mph - N/A   Mostly Cloudy
1:56 AM 27.1 °F 16.4 °F 17.1 °F 66% 30.17 in 8.0 mi West 12.7 mph - N/A   Overcast
2:56 AM 27.1 °F 16.4 °F 18.1 °F 69% 30.16 in 8.0 mi West 12.7 mph - N/A   Overcast
3:16 AM 26.6 °F 16.2 °F 17.6 °F 69% 30.14 in 8.0 mi West 11.5 mph - N/A   Overcast
3:56 AM 27.1 °F 16.4 °F 18.1 °F 69% 30.17 in 8.0 mi West 12.7 mph - N/A   Overcast
4:56 AM 27.1 °F 16.4 °F 19.0 °F 72% 30.17 in 8.0 mi West 12.7 mph - N/A   Overcast
5:56 AM 27.1 °F 17.5 °F 18.1 °F 69% 30.18 in 8.0 mi West 10.4 mph - N/A   Overcast
6:56 AM 27.1 °F 16.4 °F 18.1 °F 69% 30.19 in 8.0 mi West 12.7 mph - N/A   Overcast
7:56 AM 27.1 °F 16.9 °F 18.1 °F 69% 30.20 in 8.0 mi West 11.5 mph - N/A   Overcast
8:17 AM 26.6 °F 16.8 °F 19.4 °F 74% 30.16 in 6.0 mi West 10.4 mph - N/A   Haze
8:56 AM 27.1 °F 16.4 °F 19.0 °F 72% 30.21 in 6.0 mi West 12.7 mph - N/A   Haze
9:07 AM 26.6 °F 15.7 °F 19.4 °F 74% 30.17 in 5.0 mi West 12.7 mph - N/A   Haze
9:56 AM 27.1 °F 16.9 °F 19.0 °F 72% 30.22 in 6.0 mi West 11.5 mph - N/A   Haze
10:56 AM 27.1 °F 16.9 °F 19.0 °F 72% 30.24 in 6.0 mi West 11.5 mph - N/A   Haze
11:56 AM 28.0 °F 17.5 °F 20.1 °F 72% 30.23 in 6.0 mi WNW 12.7 mph - N/A   Haze
12:22 PM 28.4 °F 18.5 °F 19.4 °F 69% 30.18 in 6.0 mi WNW 11.5 mph - N/A   Haze
12:40 PM 28.4 °F 18.0 °F 19.4 °F 69% 30.17 in 6.0 mi WNW 12.7 mph - N/A   Haze
12:56 PM 29.1 °F 19.4 °F 20.1 °F 69% 30.21 in 6.0 mi West 11.5 mph - N/A   Haze
1:09 PM 28.4 °F 18.5 °F 19.4 °F 69% 30.17 in 6.0 mi WNW 11.5 mph - N/A   Haze
1:20 PM 28.4 °F 17.5 °F 19.4 °F 69% 30.17 in 6.0 mi West 13.8 mph - N/A   Haze
1:56 PM 29.1 °F 19.4 °F 20.1 °F 69% 30.20 in 6.0 mi WNW 11.5 mph - N/A   Haze
2:56 PM 29.1 °F 18.9 °F 19.0 °F 66% 30.19 in 6.0 mi WNW 12.7 mph - N/A   Haze
3:56 PM 28.0 °F 19.3 °F 19.0 °F 69% 30.20 in 7.0 mi WNW 9.2 mph - N/A   Overcast
4:05 PM 28.4 °F 18.5 °F 19.4 °F 69% 30.16 in 6.0 mi WNW 11.5 mph - N/A   Haze
4:15 PM 28.4 °F 18.5 °F 19.4 °F 69% 30.16 in 7.0 mi WNW 11.5 mph - N/A   Overcast
4:56 PM 28.0 °F 20.0 °F 19.0 °F 69% 30.20 in 7.0 mi West 8.1 mph - N/A   Overcast
5:56 PM 28.0 °F 21.7 °F 19.0 °F 69% 30.20 in 8.0 mi NW 5.8 mph - N/A   Overcast
6:56 PM 28.0 °F 20.0 °F 17.1 °F 63% 30.20 in 8.0 mi NW 8.1 mph - N/A   Overcast
7:56 PM 27.1 °F 20.7 °F 17.1 °F 66% 30.19 in 8.0 mi West 5.8 mph - N/A   Overcast
8:56 PM 27.1 °F 18.9 °F 17.1 °F 66% 30.19 in 8.0 mi WNW 8.1 mph - N/A   Overcast
9:56 PM 27.1 °F 20.7 °F 16.2 °F 63% 30.17 in 8.0 mi WSW 5.8 mph - N/A   Overcast
10:56 PM 27.1 °F 19.7 °F 17.1 °F 66% 30.16 in 8.0 mi WSW 6.9 mph - N/A   Overcast
11:56 PM 26.1 °F 19.4 °F 16.2 °F 66% 30.15 in 8.0 mi SW 5.8 mph - N/A   Mostly Cloudy